Weather History for Key West, FL

Change the Weather History Date:

Wednesday, February 13, 2013

  Actual Average Record
Temperature  
Mean Temperature 79 °F 71 °F  
Max Temperature 82 °F 76 °F 84 °F (1994)
Min Temperature 75 °F 66 °F 48 °F (1955)
Degree Days  
Heating Degree Days 0 1  
Month to date heating degree days 0 13  
Since 1 July heating degree days 5 64  
Cooling Degree Days 14 6  
Month to date cooling degree days 110 78  
Year to date cooling degree days 401 243  
Growing Degree Days 28 (Base 50)    
Moisture  
Dew Point 72 °F    
Average Humidity 84    
Maximum Humidity 94    
Minimum Humidity 74    
Precipitation  
Precipitation 0.00 in 0.05 in 2.84 in (1947)
Month to date precipitation T 0.66  
Year to date precipitation 0.29 2.70  
Snow  
Snow 0.00 in - - ()
Month to date snowfall 0.0  
Since 1 July snowfall 0.0  
Snow Depth 0.00 in    
Sea Level Pressure  
Sea Level Pressure 29.99 in    
Wind  
Wind Speed 7 mph (SE)    
Max Wind Speed 12 mph    
Max Gust Speed 21 mph    
Visibility 9 miles    
Events      
T = Trace of Precipitation, MM = Missing Value Source: NWS Daily Summary

Daily Weather History Graph

Daily Weather History Graph

Search for Another Location

Airport:

Trip Planner

Search our weather history database for the weather conditions in past years. The results will help you decide how hot, cold, wet, or windy it might be!

Date:

Astronomy

Feb. 13, 2013 Rise Set
Actual Time 7:02 AM EST 6:20 PM EST
Civil Twilight 6:38 AM EST 6:43 PM EST
Nautical Twilight 6:11 AM EST 7:10 PM EST
Astronomical Twilight 5:45 AM EST 7:37 PM EST
Moon 9:00 AM EST (2/13) 9:49 PM EST (2/13)
Length of Visible Light 12h 05m
Length of Day
11h 18m
Waxing Crescent, 13% of the Moon is Illuminated
Feb 13
Waxing Crescent
Feb 17
First Quarter
Feb 25
Full
Mar 4
Last Quarter
Mar 11
New

Hourly Weather History & Observations

Time (EST) Temp. Heat Index Dew Point Humidity Pressure Visibility Wind Dir Wind Speed Gust Speed Precip Events Conditions
12:53 AM 75.9 °F - 72.0 °F 87% 30.02 in 10.0 mi SE 4.6 mph - N/A   Scattered Clouds
1:04 AM 75.2 °F - 71.6 °F 89% 30.01 in 10.0 mi ESE 4.6 mph - N/A   Mostly Cloudy
1:14 AM 75.2 °F - 71.6 °F 89% 30.01 in 10.0 mi ESE 3.5 mph - N/A   Scattered Clouds
1:43 AM 75.2 °F - 73.4 °F 94% 30.00 in 9.0 mi East 3.5 mph - N/A   Mostly Cloudy
1:53 AM 75.9 °F - 73.0 °F 91% 30.00 in 9.0 mi East 3.5 mph - N/A   Mostly Cloudy
2:10 AM 75.2 °F - 71.6 °F 89% 29.99 in 9.0 mi ESE 4.6 mph - N/A   Scattered Clouds
2:35 AM 75.2 °F - 73.4 °F 94% 29.99 in 9.0 mi East 4.6 mph - N/A   Mostly Cloudy
2:53 AM 75.9 °F - 73.0 °F 91% 29.98 in 9.0 mi ESE 4.6 mph - N/A   Mostly Cloudy
3:07 AM 75.2 °F - 73.4 °F 94% 29.98 in 9.0 mi SE 4.6 mph - N/A   Scattered Clouds
3:53 AM 75.9 °F - 73.0 °F 91% 29.97 in 9.0 mi SSE 4.6 mph - N/A   Clear
4:53 AM 75.9 °F - 73.0 °F 91% 29.97 in 9.0 mi SE 4.6 mph - N/A   Clear
5:53 AM 75.9 °F - 73.0 °F 91% 29.99 in 9.0 mi SSE 4.6 mph - N/A   Clear
6:53 AM 75.9 °F - 73.0 °F 91% 29.99 in 9.0 mi South 6.9 mph - N/A   Partly Cloudy
7:53 AM 77.0 °F - 72.0 °F 84% 30.00 in 10.0 mi South 5.8 mph - N/A   Clear
8:53 AM 78.1 °F - 72.0 °F 81% 30.02 in 9.0 mi SSE 9.2 mph - N/A   Clear
9:53 AM 80.1 °F 83.8 °F 72.0 °F 76% 30.02 in 9.0 mi South 9.2 mph - N/A   Scattered Clouds
10:53 AM 81.0 °F 85.2 °F 72.0 °F 74% 30.03 in 9.0 mi South 9.2 mph - N/A   Clear
11:53 AM 80.1 °F 83.8 °F 72.0 °F 76% 30.03 in 7.0 mi South 10.4 mph - N/A   Clear
12:53 PM 81.0 °F 85.2 °F 72.0 °F 74% 30.01 in 8.0 mi South 10.4 mph - N/A   Clear
1:53 PM 81.0 °F 85.2 °F 72.0 °F 74% 29.98 in 8.0 mi South 10.4 mph - N/A   Clear
2:53 PM 81.0 °F 85.2 °F 72.0 °F 74% 29.96 in 7.0 mi South 9.2 mph - N/A   Clear
3:53 PM 81.0 °F 85.2 °F 72.0 °F 74% 29.95 in 5.0 mi South 8.1 mph - N/A   Haze
4:53 PM 79.0 °F - 72.0 °F 79% 29.94 in 5.0 mi SSE 4.6 mph - N/A   Haze
5:53 PM 79.0 °F - 71.1 °F 77% 29.94 in 9.0 mi SE 4.6 mph - N/A   Clear
6:53 PM 77.0 °F - 71.1 °F 82% 29.96 in 10.0 mi East 3.5 mph - N/A   Clear
7:53 PM 77.0 °F - 72.0 °F 84% 29.97 in 10.0 mi ESE 4.6 mph - N/A   Clear
8:53 PM 77.0 °F - 73.0 °F 88% 29.99 in 10.0 mi SE 6.9 mph - N/A   Clear
9:53 PM 77.0 °F - 72.0 °F 84% 29.99 in 10.0 mi SSE 8.1 mph - N/A   Clear
10:53 PM 77.0 °F - 72.0 °F 84% 30.00 in 10.0 mi SSE 6.9 mph - N/A   Clear
11:53 PM 77.0 °F - 73.0 °F 88% 29.99 in 10.0 mi SSE 6.9 mph - N/A   Clear